Miscellaneous Local Product
Issued by NWS North Platte, NE

Home | Current Version | Previous Version | Graphics & Text | Print | Product List | Glossary On
Versions: 1 2 3 4 5 6 7 8 9 10 11 12 13 14 15 16 17 18 19 20 21 22 23 24 25 26 27 28 29 30 31 32 33 34 35 36 37 38 39 40 41 42 43 44 45 46 47 48 49 50
000
AXUS43 KLBF 241410
MISLBF


WESTERN AND NORTH CENTRAL NEBRASKA HOURLY WEATHER ROUNDUP
NATIONAL WEATHER SERVICE NORTH PLATTE NE
900 AM CDT SAT JUN 24 2017

NOTE: "FAIR" INDICATES FEW OR NO CLOUDS BELOW 12,000 FEET WITH NO
SIGNIFICANT WEATHER AND/OR OBSTRUCTIONS TO VISIBILITY.

NOTE: STATIONS NOT REPORTING VARIABLES SUCH AS SKY/WEATHER OR
PRESSURE ARE PROVIDED BY RAWS AND APRS NETWORKS AND ARE NOT UNDER
NATIONAL WEATHER SERVICE QUALITY CONTROL.

...OBSERVATIONS IN AND NEAR THE EASTERN PANHANDLE OF NEBRASKA...

CITY           SKY/WX    TMP DP  RH WIND       PRES   REMARKS
PINE RIDGE     CLOUDY    55  39  54 SW5       30.29R
GORDON         FAIR      58  41  54 W6        30.28R
CHADRON        SUNNY     60  39  45 CALM      30.29R
ALLIANCE       MOSUNNY   57  41  55 W3        30.29R
SIDNEY         CLOUDY    58  37  45 S8        30.32F
CRESCENT LAKE    N/A     59  37  44 SW5         N/A
$$

...OBSERVATIONS IN NORTHERN NEBRASKA AND FAR SOUTHERN SOUTH DAKOTA...

CITY           SKY/WX    TMP DP  RH WIND       PRES   REMARKS
WINNER         FAIR      65  34  31 NW16      30.19R
VALENTINE      MOSUNNY   62  31  31 W9        30.24S
THEDFORD       CLOUDY    61  39  44 NW3       30.27R
AINSWORTH      SUNNY     62  38  41 W14       30.24S
O`NEILL        SUNNY     62  42  47 W12G17    30.21R
ORD            SUNNY     60  44  55 N3        30.24R
BROKEN BOW     CLOUDY    61  42  49 CALM      30.25R
VALENTINE NWR    N/A     57  36  46 W9          N/A
HALSEY           N/A     59  37  44 W5          N/A
BUTTE            N/A     63  38  39 SW12G21     N/A
CHAMBERS         N/A     69  45  41 CALM        N/A
EWING            N/A     61  47  59 W5          N/A
$$

...OBSERVATIONS IN SOUTHWEST NEBRASKA AND FAR NORTHEAST COLORADO...

CITY           SKY/WX    TMP DP  RH WIND       PRES   REMARKS
WRAY           CLOUDY    57  46  67 E3G25     30.30S
IMPERIAL       CLOUDY    58  45  62 N6        30.31R
OGALLALA       CLOUDY    60  46  59 CALM      30.30S
NORTH PLATTE   CLOUDY    58  46  64 W5        30.29R
MCCOOK         CLOUDY    56  47  71 W3        30.29R
LEXINGTON      CLOUDY    60  48  66 W3        30.27S
STAPLETON        N/A     55  43  64 CALM        N/A
GOTHENBURG       N/A     54  41  61 W3          N/A
CALLAWAY         N/A     55  47  74 CALM        N/A
$$

...OBSERVATIONS IN CENTRAL LINCOLN COUNTY AREA...

CITY           SKY/WX    TMP DP  RH WIND       PRES   REMARKS
N.P. AIRPORT   CLOUDY    58  46  64 W5        30.29R
N.P. DOWNTOWN    N/A     58  45  62 CALM        N/A
N.P. SOUTHEAST   N/A     57  43  59 CALM        N/A
N.P. HILLCREST   N/A     56  45  67 CALM        N/A
$$

...SOME OBSERVATIONS FROM AROUND THE REGION...

CITY           SKY/WX    TMP DP  RH WIND       PRES   REMARKS
DENVER         CLOUDY    57  49  74 E6        30.32R
LIMON          CLOUDY    58  47  66 SE6       30.33R
ASPEN          CLOUDY    53  30  41 SE5       30.36R
LARAMIE        CLOUDY    50  29  44 SE14      30.37R
CASPER         SUNNY     54  33  45 W5        30.35R
CHEYENNE       CLOUDY    54  32  43 CALM      30.36R
SCOTTSBLUFF    CLOUDY    60  39  45 MISG      30.31R
GRAND ISLAND   MOSUNNY   63  45  51 W7        30.24R
OMAHA          SUNNY     66  45  46 NW5       30.18R
SIOUX FALLS    MOSUNNY   62  44  51 W10       30.12R
PIERRE         SUNNY     59  38  45 NW20      30.18R
RAPID CITY     SUNNY     65  30  27 NW12      30.26R
BISMARCK       MOSUNNY   55  40  56 NW17G26   30.16R
KANSAS CITY    SUNNY     68  49  50 N5        30.21R
HILL CITY      MOSUNNY   62  49  62 CALM      30.29R
WICHITA        CLOUDY    70  56  61 CALM      30.25R
DODGE CITY     CLOUDY    68  52  56 SE13      30.27R
OKLAHOMA CITY  CLOUDY    71  53  52 E10       30.21R
DALLAS         TSTM      72  71  97 NE15G22   30.15R FOG
AMARILLO       CLOUDY    59  54  83 E12       30.29R
$$




USA.gov is the U.S. government's official web portal to all federal, state and local government web resources and services.